Погода в Колесникове

Россия / Тюменская область     56°18′07″N   66°54′25″E
темп.,
°C
ветер,
м/с
пор.,
м/с
влажн.,
%
обл.,
%
осадки,
мм/ч
давл.,
гПа
погр.,
м
12 апреля, пн
пн1223:00+2юз5148037 0.0 1035254
02:00+2юз5148431 0.0 1034265
05:00+2юз4119078 0.0 1033213
08:00+4зюз4991100 0.0 1033220
11:00+7з4891100 0.0 1033350
14:00+6з3798100 0.1 1033265
17:00+10зсз3779100 0.2 1034605
20:00+7сз3782100 0.0 1036113
13 апреля, вт
вт1323:00+5ссз33830 0.0 103730
02:00+3с22842 0.0 103919
05:00+2с22760 0.0 104010
08:00+5сз23700 0.0 1041138
11:00+8зсз34570 0.0 1041683
14:00+11зсз444423 0.0 1040996
17:00+11з45470 0.0 1039939
20:00+7зюз336816 0.0 103837
14 апреля, ср
ср1423:00+5зюз357619 0.0 103775
02:00+4юз4108479 0.0 1035171
05:00+4юз51381100 0.0 1034262
08:00+6зюз51380100 0.0 1033375
11:00+11зюз696915 0.0 1031515
14:00+15з68635 0.0 10291013
17:00+16з586226 0.0 10281073
20:00+12з368149 0.0 102791
15 апреля, чт
чт1523:00+10з35875 0.0 102781
02:00+9зюз35907 0.0 102673
05:00+8зюз36937 0.0 102599
08:00+10з37845 0.0 1024199
11:00+15з575855 0.0 1023913
14:00+18з68425 0.0 10211386
17:00+18з57465 0.0 10191365
20:00+13з346810 0.0 101861
16 апреля, пт
пт1623:00+11зюз367836 0.0 101778
02:00+10зюз378726 0.0 1016111
05:00+10зюз3785100 0.0 1015136
08:00+12зюз238021 0.0 1014152
11:00+16зюз236357 0.0 1013658
14:00+18зюз354619 0.1 10112043
17:00+17зсз234798 0.1 10091155
20:00+12всв5977100 0.0 1008270